Find Starlink 2428

NORAD ID: 48099 Int'l Des: 2021-027 Owner: SPXS Country: US Constellation: starlink operational
LEOCIRCULAR

リアルタイム位置

3D地球を読み込み中...

Starlink 2428について

説明を読み込み中...

次回通過

Passes for default location (London). Set your location on the main map for personalized predictions.

高度履歴

Loading altitude history...

軌道要素

1 48099U 21027H 26124.00002315 -.00010222 00000-0 -31800-3 0 9992
2 48099 53.1584 270.6412 0001200 76.8729 271.9802 15.31708781 5872
Epoch: May 4, 2026 • Age: 6 hours

現在のステータス

高度 478.7 km
速度 7.63 km/s
衛星直下点 -26.04°S, 66.6°W
打ち上げ日 Apr 7, 2021
運用期間 5 years
タイプ internet

技術仕様

分類 Payload
質量 260.00 kg
乾燥質量 248.00 kg
総質量 260.00 kg
長さ 0.20 m
直径 2.80 m
スパン 9.00 m
形状 Box + pan
製造者 SPXS
バスタイプ Starlink
フェーズステータス In Orbit
所有者/国 SPXS/US

Most Searched